STARLINK-4081, 52660

Orbit data source: Space-Track

STARLINK-4081, 52660 is a payload satellite owned by SpaceX/Seattle (US) in LEO that was launched on Wed, 18 May 2022 UTC via an FALCON 9 launch vehicle from the Air Force Eastern Test Range (AFETR). Payload-class satellites include a variety of spacecraft equipped with specific instruments for various scientific and technological missions. These include communications satellites like Starlink; space stations such as the ISS; scientific satellites like the Hubble; Earth observation satellites from companies like Planet Labs, Umbra, and HawkEye 360; GPS; miniature CubeSats for education and research; and military/defense satellites.

Loading next visibility...
Identifier
52660, 2022-053E
Orbit
LEO
Country
Flag of USUS
Related business
Manufacturer
SpaceX/Seattle
Mission
Operational Commercial Communications
Bus & Motor
STARLINK, Unknown motor
Mass
297 kg wet, ~275 kg dry
Launch date (UTC)
2022-05-18 (4 years ago)
Launch vehicle
FALCON 9
Launch site
Air Force Eastern Test Range (AFETR)
Object type
Payload
Rocket body
Debris
Shape & HBR
Box + 1 Pan, 10.1 m
Radar Cross Section
13.562 m², Large (>1 m²)

Expand to show TLE details & history
Last TLE update: 2 days ago

TLE from 2 days ago
0 STARLINK-4081
1 52660U 22053E   26170.96220662  .00001667  00000-0  12281-3 0  9997
2 52660  53.1614  54.8898 0001317  97.0322 263.0819 15.08843615226558
Epoch: 2026-06-19T23:05Z
TLE epoch observation values (Epoch: 2026-06-19T23:05:34.651Z)
Latitude
-0.00007°
Longitude
160.31171°
Altitude
540.734 km
Speed
7.593 km/s
True Right ascension
03h 39m 33s
True Declination
0° 00' 00"
Sunlit
Object was in daylight at epoch
Visualization orbit readout
Latitude
Unknown
Longitude
Unknown
Altitude
Unknown
Speed
Unknown
Apparent Right ascension
Unknown
Apparent Declination
Unknown
Sunlit
N/A
Visualization observer readout
Local Sidereal Time
21:29:40
Azimuth
Unknown
Elevation
Unknown
Doppler factor
Unknown
Orbital elements
Apogee altitude
540.897 km
Perigee altitude
539.075 km
Semi-major axis
6,918.123 km
Eccentricity
0.00013
Inclination
53.1614°
RAAN
54.8898°
Arg. of periapsis
97.0322°
True anomaly
263.06692°
Mean anomaly
263.0819°
Eccentric anomaly
263.07441°
Mean motion
3.7719 °/min
Orbital period
95.44 mins
BSTAR
0.00012281
Loading maneuver chart data...
Computing Atmospheric mass density...
Loading historical data...
Loading historical data...
Loading historical data...
Loading historical data...
Loading historical data...
Loading historical data...
Loading historical data...

Documentation

Showing up to 5 results
|